Location: Montréal
(45.5017°N, 73.5673°W)
Time: 13:58:45
(UTC-04:00)

ISS - Visible Passes

Search period start: 29 September 2020 00:00
Search period end: 09 October 2020 00:00
Orbit: 419 x 421 km, 51.6° (Epoch: 30 September)

Date Brightness Start Highest point End Pass type
(mag) Time Alt. Az. Time Alt. Az. Time Alt. Az.
29 Sep -2.4 19:40:32 10° NW 19:43:35 30° N 19:45:32 17° ENE visible
29 Sep -1.1 21:17:20 10° WNW 21:18:31 20° WNW 21:18:31 20° WNW visible
30 Sep -3.3 20:30:05 10° WNW 20:33:04 55° N 20:33:04 55° N visible
01 Oct -3.1 19:42:51 10° NW 19:46:07 45° NNE 19:47:39 25° ENE visible
01 Oct -0.8 21:19:46 10° WNW 21:20:38 16° W 21:20:38 16° W visible
02 Oct -3.1 20:32:23 10° WNW 20:35:16 53° WSW 20:35:16 53° WSW visible
03 Oct -3.8 19:45:05 10° WNW 19:48:27 89° N 19:49:57 31° ESE visible
03 Oct -0.4 21:22:51 10° W 21:22:56 10° W 21:22:56 10° W visible
04 Oct -3.6 18:57:48 10° WNW 19:01:09 62° NNE 19:04:29 10° ESE visible
04 Oct -1.8 20:34:59 10° W 20:37:42 23° SW 20:37:42 23° SW visible
05 Oct -2.5 19:47:25 10° WNW 19:50:34 37° SW 19:52:34 18° SSE visible
06 Oct -3.2 19:00:01 10° WNW 19:03:20 58° SW 19:06:39 10° SE visible
07 Oct -0.9 19:50:28 10° W 19:52:25 15° SW 19:54:23 10° S visible
08 Oct -1.4 19:02:32 10° W 19:05:16 23° SW 19:07:59 10° SSE visible
